User: anonymous   Login
Location: Spradlin Observatory
(33.4706°N, 86.3221°W)
Time: 13:23:30
(UTC-05:00)
Language:

COSMOS 2406 - Orbit

View from above orbital plane
View from above orbital plane
View from above satellite
View from above satellite

Ground track
Ground track

The orbit data is extracted from the following two-line orbital elements,

1 28352U 04021A   18141.18578269  .00000019  00000-0  36642-4 0  9993
2 28352  71.0039 138.9396 0017155 305.0925  54.8587 14.11657666718549
Epoch (UTC): 21 May 2018 04:27:31
Eccentricity: 0.0017155
inclination: 71.0039°
perigee height: 841 km
apogee height: 866 km
right ascension of ascending node: 138.9396°
argument of perigee: 305.0925°
revolutions per day: 14.11657666
mean anomaly at epoch: 54.8587°
orbit number at epoch: 71854

The dashed part of the orbit path shows where the satellite is in the earth's shadow,  

DLR